Location: Monreal
(44.6700°N, 73.7400°W)
Time: 07:53:22
(UTC-05:00)

CUTE-I - Pass Details

Date: 19 December 2016
Orbit: 812 x 824 km, 98.7° (Epoch: 22 November)

Event Time Altitude Azimuth Distance (km) Brightness Sun altitude
Rises 06:04:39 0° 17° (NNE) 3,348 ? -14.1°
Reaches altitude 10° 06:07:03 10° 22° (NNE) 2,411 ? -13.7°
Maximum altitude 06:12:17 56° 101° (E) 961 ? -12.9°
Drops below altitude 10° 06:17:29 10° 179° (S) 2,392 ? -12.0°
Sets 06:19:51 0° 184° (S) 3,320 ? -11.6°
